| time (UTC) | temp F | wind direction | speed MPH | gust MPH | rain 1hr in | rain 24hr in | rain mn in | humidity % | barometer mb |
| 20260510170047 | 68 | 171 | 4.0 | 10.0 | 0.00 | 0.16 | 0.16 | 73 | 1015.9 |
| 20260510160045 | 71 | 240 | 1.0 | 6.0 | 0.00 | 0.16 | 0.16 | 68 | 1016.0 |
| 20260510153045 | 73 | 187 | 4.0 | 7.0 | 0.00 | 0.16 | 0.16 | 65 | 1016.0 |
| 20260510143044 | 73 | 291 | 2.0 | 5.0 | 0.00 | 0.16 | 0.16 | 62 | 1016.3 |
| 20260510140043 | 74 | 158 | 6.0 | 7.0 | 0.00 | 0.16 | 0.16 | 61 | 1016.3 |
| 20260510133102 | 74 | 203 | 7.0 | 11.0 | 0.00 | 0.16 | 0.16 | 59 | 1016.4 |
| 20260510130042 | 74 | 207 | 6.0 | 9.0 | 0.00 | 0.16 | 0.16 | 60 | 1016.5 |
| 20260510123041 | 74 | 227 | 8.0 | 11.0 | 0.00 | 0.16 | 0.16 | 62 | 1016.9 |
| 20260510120041 | 73 | 188 | 4.0 | 12.0 | 0.00 | 0.16 | 0.16 | 65 | 1016.9 |
| 20260510113040 | 72 | 261 | 2.0 | 7.0 | 0.00 | 0.16 | 0.16 | 67 | 1016.9 |
| 20260510110040 | 71 | 169 | 5.0 | 9.0 | 0.00 | 0.16 | 0.16 | 70 | 1016.7 |
| 20260510100039 | 70 | 186 | 3.0 | 8.0 | 0.00 | 0.16 | 0.16 | 71 | 1017.0 |
| 20260510093039 | 70 | 238 | 4.0 | 5.0 | 0.00 | 0.16 | 0.16 | 72 | 1016.8 |
| 20260510090038 | 69 | 194 | 8.0 | 11.0 | 0.00 | 0.16 | 0.16 | 73 | 1016.6 |
| 20260510083038 | 68 | 146 | 11.0 | 11.0 | 0.00 | 0.16 | 0.16 | 71 | 1016.7 |
| 20260510080037 | 68 | 202 | 10.0 | 10.0 | 0.00 | 0.16 | 0.16 | 79 | 1016.3 |
| 20260510073037 | 66 | 188 | 4.0 | 8.0 | 0.00 | 0.16 | 0.16 | 83 | 1015.9 |
| 20260510063035 | 63 | 204 | 3.0 | 6.0 | 0.00 | 0.16 | 0.16 | 89 | 1015.5 |
| 20260510060035 | 62 | 221 | 3.0 | 4.0 | 0.00 | 0.16 | 0.16 | 90 | 1015.1 |
| 20260510053036 | 61 | 201 | 2.0 | 5.0 | 0.00 | 0.16 | 0.16 | 91 | 1015.0 |
| 20260510050034 | 61 | 226 | 2.0 | 4.0 | 0.00 | 0.16 | 0.16 | 90 | 1014.2 |
| 20260510043033 | 62 | 97 | 0.0 | 2.0 | 0.00 | 0.16 | 0.16 | 89 | 1013.5 |
| 20260510040033 | 62 | 125 | 2.0 | 7.0 | 0.00 | 0.16 | 0.16 | 88 | 1013.0 |
| 20260510030031 | 63 | 75 | 0.0 | 7.0 | 0.00 | 0.16 | 0.16 | 89 | 1013.5 |
| 20260510023031 | 62 | 39 | 3.0 | 5.0 | 0.00 | 0.16 | 0.16 | 91 | 1013.2 |
| 20260510020030 | 61 | 37 | 3.0 | 7.0 | 0.06 | 0.16 | 0.16 | 92 | 1013.8 |
| 20260510013029 | 61 | 20 | 7.0 | 11.0 | 0.09 | 0.16 | 0.16 | 92 | 1014.4 |
| 20260510010029 | 62 | 33 | 3.0 | 10.0 | 0.03 | 0.10 | 0.10 | 91 | 1015.1 |
| 20260510000028 | 63 | 316 | 2.0 | 2.0 | 0.04 | 0.07 | 0.07 | 88 | 1017.5 |
| 20260509230028 | 64 | 225 | 6.0 | 8.0 | 0.03 | 0.03 | 0.03 | 86 | 1018.1 |
| 20260509213026 | 62 | 127 | 1.0 | 4.0 | 0.00 | 0.00 | 0.00 | 89 | 1013.1 |
| 20260509210026 | 62 | 101 | 1.0 | 7.0 | 0.00 | 0.00 | 0.00 | 90 | 1013.2 |
| 20260509203024 | 62 | 72 | 6.0 | 6.0 | 0.00 | 0.00 | 0.00 | 90 | 1013.6 |
| 20260509200024 | 62 | 100 | 6.0 | 10.0 | 0.00 | 0.00 | 0.00 | 88 | 1014.1 |
| 20260509193023 | 63 | 110 | 4.0 | 9.0 | 0.00 | 0.00 | 0.00 | 86 | 1014.3 |
| 20260509190023 | 63 | 126 | 3.0 | 8.0 | 0.00 | 0.00 | 0.00 | 84 | 1014.7 |
| 20260509183023 | 64 | 132 | 4.0 | 7.0 | 0.00 | 0.00 | 0.00 | 82 | 1014.4 |
| 20260509180022 | 66 | 76 | 1.0 | 4.0 | 0.00 | 0.00 | 0.00 | 77 | 1014.5 |
| 20260509173021 | 66 | 54 | 4.0 | 4.0 | 0.00 | 0.00 | 0.00 | 77 | 1014.8 |